ONEWEB-0034, 45454

Orbit data source: Space-Track

ONEWEB-0034, 45454 is a payload satellite owned by One Web (UK) in LEO that was launched on Sat, 21 Mar 2020 UTC via a SOYUZ-2-1B launch vehicle from the Tyuratam Missile And Space Complex (TTMTR). Payload-class satellites include a variety of spacecraft equipped with specific instruments for various scientific and technological missions. These include communications satellites like Starlink; space stations such as the ISS; scientific satellites like the Hubble; Earth observation satellites from companies like Planet Labs, Umbra, and HawkEye 360; GPS; miniature CubeSats for education and research; and military/defense satellites.

Loading next visibility...
Identifier
45454, 2020-020AG
Orbit
LEO
Country
Flag of UKUK
Related business
Manufacturer
One Web
Mission
Operational Commercial Communications
Bus & Motor
ARROW, Unknown motor
Mass
148 kg wet, ~140 kg dry
Launch date (UTC)
2020-03-21 (5 years ago)
Launch vehicle
SOYUZ-2-1B
Launch site
Tyuratam Missile And Space Complex (TTMTR)
Object type
Payload
Rocket body
Debris
Shape & HBR
Trap Box + 2 Pan, 2.5 m
Radar Cross Section
2.957 m², Large (>1 m²)

Expand to show TLE details & history
Last TLE update: 9 hours ago

TLE from 9 hours ago
0 ONEWEB-0034
1 45454U 20020AG  25245.94444386 -.00000395  00000-0 -11517-2 0  9992
2 45454  87.8784  78.2845 0001678  86.5269 273.6051 13.11417619264941
Epoch: 2025-09-02T22:39Z
TLE epoch observation values (Epoch: 2025-09-02T22:39:59.949Z)
Latitude
-0.00001°
Longitude
115.9563°
Altitude
1,220.489 km
Speed
7.244 km/s
True Right ascension
05h 13m 08s
True Declination
0° 00' 00"
Sunlit
Object was in daylight at epoch
Visualization orbit readout
Latitude
Unknown
Longitude
Unknown
Altitude
Unknown
Speed
Unknown
Apparent Right ascension
Unknown
Apparent Declination
Unknown
Sunlit
N/A
Visualization observer readout
Local Sidereal Time
23:42:45
Azimuth
Unknown
Elevation
Unknown
Doppler factor
Unknown
Orbital elements
Apogee altitude
1,216.073 km
Perigee altitude
1,213.524 km
Semi-major axis
7,592.935 km
Eccentricity
0.00017
Inclination
87.8784°
RAAN
78.2845°
Arg. of periapsis
86.5269°
True anomaly
273.58591°
Mean anomaly
273.6051°
Eccentric anomaly
273.5955°
Mean motion
3.28041 °/min
Orbital period
109.74 mins
BSTAR
-0.0011517
Loading maneuver chart data...
Computing Atmospheric mass density...
Loading historical data...
Loading historical data...
Loading historical data...
Loading historical data...
Loading historical data...
Loading historical data...
Loading historical data...

Documentation

Showing up to 5 results
|